Location: Navarre
(52.9016°N, 113.4144°W)
Time: 13:12:35
(UTC+00:00)

ISS - Pass Details

Date: 07 December 2021
Orbit: 413 x 422 km, 51.6° (Epoch: 18 January)

Event Time Altitude Azimuth Distance (km) Brightness Sun altitude
Rises 00:34:56 0° 281° (W) 2,387 1.1 -10.7°
Reaches altitude 10° 00:37:12 10° 270° (W) 1,517 0.3 -11.0°
Maximum altitude 00:40:12 29° 208° (SSW) 803 -1.8 -11.4°
Drops below altitude 10° 00:43:12 10° 146° (SE) 1,506 -1.1 -11.9°
Enters shadow 00:45:44 -1° 134° (SE) 2,484 -0.1 -12.2°
